Regional Weather Roundup
Issued by NWS Sterling, VA

Home | Current Version | Previous Version | Graphics & Text | Print | Product List | Glossary On
Versions: 1 2 3 4 5 6 7 8 9 10 11 12 13 14 15 16 17 18 19 20 21 22 23 24 25 26 27
000
ASUS41 KLWX 232010
RWRLWX

REGIONAL WEATHER ROUNDUP
NATIONAL WEATHER SERVICE BALTIMORE MD/WASHINGTON DC
400 PM EDT FRI SEP 23 2016

Note: "FAIR" indicates few or no clouds below 12,000 feet
with no significant weather and/or obstructions to visibility.
 TC=TEMPERATURE CELSIUS

 * =Non NWS site. Station does not report precipitation (e.g. rain,
    snow, etc.), thunder, or fog.

DCZ001-MDZ009-015-VAZ040>042-051-053>054-232100-
WASHINGTON METRO

CITY           SKY/WX    TMP DP  RH WIND       PRES   REMARKS
WASHINGTON NAT SUNNY     88  60  38 CALM      29.97F
DULLES         SUNNY     89  56  32 VRB5      29.97F
ANDREWS AFB    SUNNY     87  56  34 VRB3      29.96F
FT BELVOIR     SUNNY     88  61  39 CALM      29.96F
QUANTICO         N/A     83  68  60 S8        29.98F
LEESBURG*      SUNNY     90  61  37 W10G17    29.98F
MANASSAS*      SUNNY     90  57  33 W5        29.97F
GAITHERSBURG*  SUNNY     86  61  42 W6        30.01F

$$

MDZ006>007-011-014-232100-
BALTIMORE METRO

CITY           SKY/WX    TMP DP  RH WIND       PRES   REMARKS
BWI AIRPORT    MOSUNNY   88  58  36 W5        29.95F
MD SCIENCE CTR   N/A     88  59  37 MISG      29.95F
MARTIN STATE   MOSUNNY   82  72  69 SE10      29.97
ANNAPOLIS      SUNNY     80  69  69 SE10      29.96F
FORT MEADE*      N/A     86  57  37 CALM      29.99S

$$

MDZ012-015-019>023-232100-
MARYLAND EASTERN SHORE

CITY           SKY/WX    TMP DP  RH WIND       PRES   REMARKS
OCEAN CITY     SUNNY     77  69  76 SE8       29.98S
SALISBURY      SUNNY     84  61  45 CALM      29.97F
EASTON*        SUNNY     84  57  39 N5        30.01F

$$

MDZ017>025-232100-
SOUTHERN MARYLAND

CITY           SKY/WX    TMP DP  RH WIND       PRES   REMARKS
PATUXENT RIVER MOSUNNY   82  61  48 SE5       29.98S
ST INIGOES     SUNNY     81  67  62 SE5       29.98S
LEONARDTOWN*   SUNNY     82  61  47 CALM      29.99F

$$

MDZ003>005-232100-
NORTH CENTRAL MARYLAND

CITY           SKY/WX    TMP DP  RH WIND       PRES   REMARKS
FREDERICK*     SUNNY     91  59  33 N7        29.99F HX  90
HAGERSTOWN APT SUNNY     90  57  32 CALM      29.98F

$$

MDZ501>502-232100-
WESTERN MARYLAND

CITY           SKY/WX    TMP DP  RH WIND       PRES   REMARKS
OAKLAND*       SUNNY     77  55  47 NW7       30.14F
CUMBERLAND*    SUNNY     91  55  29 W3        30.03F

$$

VAZ025>031-232100-
SHENANDOAH VALLEY

CITY           SKY/WX    TMP DP  RH WIND       PRES   REMARKS
WINCHESTER*    SUNNY     91  54  27 NW6       29.98F HAZE
FRONT ROYAL*   FAIR      88  61  40 SW3       29.98F
LURAY*         FAIR      88  59  37 CALM      30.00F
NEW MARKET*    FAIR     N/A N/A N/A NE7       29.98F
STAUNTON*      SUNNY     86  60  41 CALM      30.04F
WAYNESBORO*    FAIR      85  58  39 CALM      30.04F

$$

WVZ021-048>050-054>055-232100-
EASTERN WEST VIRGINIA PANHANDLE

CITY           SKY/WX    TMP DP  RH WIND       PRES   REMARKS
MARTINSBURG    SUNNY     90  57  32 CALM      29.97F
PETERSBURG*    SUNNY     92  57  30 NW7       30.00F HX  91

$$

VAZ036>039-050-232100-
CENTRAL FOOTHILLS

CITY           SKY/WX    TMP DP  RH WIND       PRES   REMARKS
CHARLOTTESVILL SUNNY     88  62  41 VRB3      30.00F
CULPEPER*      SUNNY     88  63  42 N3        29.99F
ORANGE*          N/A     88  59  37 CALM      30.01S
GORDONSVILLE*  FAIR      88  64  45 SE3       29.99F
WARRENTON*     FAIR      90  51  25 CALM      29.98F

$$

VAZ055>057-232100-
NORTH AND CENTRAL PIEDMONT

CITY           SKY/WX    TMP DP  RH WIND       PRES   REMARKS
FREDERICKSBRG* SUNNY     87  62  42 CALM      29.97S
STAFFORD*      SUNNY     85  62  44 W6        30.02S

$$

NCZ024-NYZ072-PAZ021-071-VAZ022-071-232100-
OTHER REGIONAL OBSERVATIONS

CITY           SKY/WX    TMP DP  RH WIND       PRES   REMARKS
NEW YORK CITY  SUNNY     86  56  35 CALM      29.96F
PHILADELPHIA   SUNNY     87  58  37 VRB5      29.95F
PITTSBURGH     MOSUNNY   87  59  38 VRB6      30.03F
ROANOKE        MOSUNNY   88  59  37 E6        30.05F
RICHMOND       MOSUNNY   86  62  44 N3        29.98F
RALEIGH        MOSUNNY   82  69  64 NE8       30.00F

$$

ANZ530>537-232100-
MARINE OBSERVATIONS

STATION/POSITION TIME  TEMP    WIND        PRES
                       AIR SEA DIR/SP/G
                 (UTC) (F)     (DEG/KT/KT) (MB)
THOMAS PT LIGHT  2000   78 77  150/  6/  7 1016.2F
BALT KEY BRIDGE  1942   78     120/  8/ 10 1014.4F
COVE POINT       1942   78      70/  4/  5 1015.8F
LEWISETTA        1942   76 78  120/  8/  9 1014.9F
SOLOMONS ISLAND  1942   78 78   90/  7/  8   N/A
PINEY POINT      1948          150/  4/  5   N/A

$$





USA.gov is the U.S. government's official web portal to all federal, state and local government web resources and services.